| time (UTC) | temp F | wind direction | speed knots | gust knots | rain 1hr in | rain 24hr in | rain mn in | humidity % | barometer mb |
| 20260508080028 | 53 | 102 | 1.7 | 7.8 | 0.00 | 0.00 | 0.00 | 75 | 1014.7 |
| 20260508074530 | 53 | 0 | 0.0 | 1.7 | 0.00 | 0.00 | 0.00 | 77 | 1014.8 |
| 20260508073106 | 52 | 102 | 0.9 | 3.5 | 0.00 | 0.00 | 0.00 | 77 | 1014.7 |
| 20260508071539 | 52 | 68 | 1.7 | 7.0 | 0.00 | 0.00 | 0.00 | 77 | 1014.4 |
| 20260508070029 | 52 | 67 | 3.5 | 7.8 | 0.00 | 0.00 | 0.00 | 77 | 1014.3 |
| 20260508064532 | 51 | 75 | 3.5 | 7.0 | 0.00 | 0.00 | 0.00 | 77 | 1014.1 |
| 20260508063046 | 51 | 72 | 1.7 | 6.1 | 0.00 | 0.00 | 0.00 | 78 | 1014.1 |
| 20260508061530 | 51 | 87 | 2.6 | 7.8 | 0.00 | 0.00 | 0.00 | 78 | 1013.9 |
| 20260508060035 | 50 | 69 | 1.7 | 5.2 | 0.00 | 0.00 | 0.00 | 79 | 1013.8 |
| 20260508054531 | 50 | 0 | 0.0 | 2.6 | 0.00 | 0.00 | 0.00 | 79 | 1014.0 |
| 20260508053033 | 50 | 0 | 0.0 | 1.7 | 0.00 | 0.00 | 0.00 | 79 | 1014.0 |
| 20260508051534 | 50 | 69 | 0.9 | 2.6 | 0.00 | 0.00 | 0.00 | 80 | 1014.0 |
| 20260508050033 | 50 | 77 | 0.0 | 1.7 | 0.00 | 0.00 | 0.00 | 83 | 1013.9 |
| 20260508044530 | 49 | 84 | 0.0 | 1.7 | 0.00 | 0.00 | 0.00 | 83 | 1014.0 |
| 20260508043030 | 49 | 0 | 0.0 | 0.0 | 0.00 | 0.00 | 0.00 | 84 | 1013.9 |
| 20260508041530 | 50 | 0 | 0.0 | 1.7 | 0.00 | 0.00 | 0.00 | 84 | 1013.8 |
| 20260508040030 | 50 | 0 | 0.0 | 1.7 | 0.00 | 0.00 | 0.00 | 83 | 1013.7 |
| 20260508034528 | 50 | 342 | 0.0 | 3.5 | 0.00 | 0.00 | 0.00 | 83 | 1013.8 |
| 20260508033026 | 50 | 0 | 0.0 | 0.9 | 0.00 | 0.00 | 0.00 | 82 | 1013.7 |
| 20260508031531 | 50 | 0 | 0.0 | 0.9 | 0.00 | 0.00 | 0.00 | 81 | 1013.8 |
| 20260508030028 | 50 | 0 | 0.0 | 2.6 | 0.00 | 0.00 | 0.00 | 81 | 1013.8 |
| 20260508024542 | 50 | 0 | 0.0 | 2.6 | 0.00 | 0.00 | 0.00 | 80 | 1013.9 |
| 20260508023029 | 50 | 0 | 0.0 | 2.6 | 0.00 | 0.00 | 0.00 | 80 | 1014.0 |
| 20260508021530 | 50 | 0 | 0.0 | 1.7 | 0.00 | 0.00 | 0.00 | 79 | 1014.0 |
| 20260508020029 | 50 | 0 | 0.0 | 0.9 | 0.00 | 0.00 | 0.00 | 78 | 1014.0 |
| 20260508014534 | 51 | 0 | 0.0 | 0.9 | 0.00 | 0.00 | 0.00 | 78 | 1014.0 |
| 20260508013029 | 51 | 0 | 0.9 | 1.7 | 0.00 | 0.00 | 0.00 | 78 | 1013.9 |
| 20260508011530 | 51 | 140 | 0.0 | 3.5 | 0.00 | 0.00 | 0.00 | 78 | 1014.0 |
| 20260508010034 | 51 | 67 | 1.7 | 4.3 | 0.00 | 0.00 | 0.00 | 77 | 1014.0 |
| 20260508004528 | 51 | 83 | 2.6 | 6.1 | 0.00 | 0.00 | 0.00 | 77 | 1014.0 |
| 20260508003031 | 50 | 61 | 0.9 | 3.5 | 0.00 | 0.00 | 0.00 | 83 | 1014.2 |
| 20260508001532 | 49 | 103 | 0.9 | 2.6 | 0.00 | 0.00 | 0.00 | 80 | 1014.3 |
| 20260508000030 | 49 | 82 | 0.0 | 1.7 | 0.00 | 0.00 | 0.00 | 81 | 1014.4 |
| 20260507234530 | 48 | 0 | 0.0 | 3.5 | 0.00 | 0.00 | 0.00 | 82 | 1014.4 |
| 20260507233040 | 48 | 0 | 0.0 | 0.0 | 0.00 | 0.00 | 0.00 | 82 | 1014.4 |
| 20260507231534 | 48 | 0 | 0.0 | 1.7 | 0.00 | 0.00 | 0.00 | 81 | 1014.6 |
| 20260507230036 | 49 | 114 | 0.9 | 1.7 | 0.00 | 0.00 | 0.00 | 80 | 1014.6 |
| 20260507224540 | 49 | 0 | 0.0 | 3.5 | 0.00 | 0.00 | 0.00 | 80 | 1014.5 |
| 20260507223033 | 50 | 0 | 0.0 | 1.7 | 0.00 | 0.00 | 0.00 | 79 | 1014.5 |
| 20260507221535 | 50 | 0 | 0.0 | 3.5 | 0.00 | 0.00 | 0.00 | 79 | 1014.5 |
| 20260507220028 | 50 | 121 | 0.9 | 4.3 | 0.00 | 0.00 | 0.00 | 79 | 1014.5 |
| 20260507214531 | 50 | 134 | 1.7 | 5.2 | 0.00 | 0.00 | 0.00 | 78 | 1014.6 |
| 20260507213031 | 51 | 159 | 0.0 | 2.6 | 0.00 | 0.00 | 0.00 | 77 | 1014.6 |
| 20260507211531 | 51 | 0 | 0.0 | 1.7 | 0.00 | 0.00 | 0.00 | 76 | 1014.4 |
| 20260507210030 | 51 | 0 | 0.0 | 1.7 | 0.00 | 0.00 | 0.00 | 76 | 1014.5 |
| 20260507204530 | 51 | 0 | 0.0 | 1.7 | 0.00 | 0.00 | 0.00 | 76 | 1014.2 |
| 20260507203038 | 52 | 0 | 0.9 | 3.5 | 0.00 | 0.00 | 0.00 | 75 | 1014.2 |
| 20260507201529 | 53 | 180 | 0.9 | 5.2 | 0.00 | 0.00 | 0.00 | 74 | 1013.9 |
| 20260507200028 | 53 | 180 | 0.9 | 4.3 | 0.00 | 0.00 | 0.00 | 73 | 1013.8 |
| 20260507194529 | 53 | 157 | 0.0 | 3.5 | 0.00 | 0.00 | 0.00 | 73 | 1013.7 |
| 20260507193030 | 53 | 169 | 0.9 | 3.5 | 0.00 | 0.00 | 0.00 | 72 | 1013.7 |
| 20260507191528 | 54 | 180 | 0.9 | 3.5 | 0.00 | 0.00 | 0.00 | 71 | 1013.7 |
| 20260507190028 | 54 | 0 | 0.0 | 4.3 | 0.00 | 0.00 | 0.00 | 71 | 1013.6 |
| 20260507184529 | 55 | 131 | 1.7 | 5.2 | 0.00 | 0.00 | 0.00 | 70 | 1013.6 |
| 20260507183030 | 55 | 0 | 0.0 | 5.2 | 0.00 | 0.00 | 0.00 | 69 | 1013.7 |
| 20260507181532 | 56 | 133 | 1.7 | 6.1 | 0.00 | 0.00 | 0.00 | 68 | 1013.5 |
| 20260507180034 | 55 | 0 | 0.9 | 6.1 | 0.00 | 0.00 | 0.00 | 70 | 1013.3 |
| 20260507174528 | 56 | 144 | 0.9 | 6.1 | 0.00 | 0.00 | 0.00 | 70 | 1013.3 |
| 20260507173032 | 56 | 142 | 2.6 | 7.0 | 0.00 | 0.00 | 0.00 | 69 | 1013.4 |
| 20260507171529 | 56 | 157 | 1.7 | 7.8 | 0.00 | 0.00 | 0.00 | 70 | 1013.3 |
| 20260507170030 | 56 | 196 | 1.7 | 8.7 | 0.00 | 0.00 | 0.00 | 70 | 1013.3 |
| 20260507164534 | 57 | 164 | 1.7 | 7.8 | 0.00 | 0.00 | 0.00 | 69 | 1013.4 |
| 20260507163030 | 57 | 0 | 1.7 | 7.0 | 0.00 | 0.00 | 0.00 | 68 | 1013.3 |
| 20260507161530 | 58 | 129 | 2.6 | 7.8 | 0.00 | 0.00 | 0.00 | 67 | 1013.3 |
| 20260507160028 | 58 | 117 | 0.9 | 7.8 | 0.00 | 0.00 | 0.00 | 68 | 1013.3 |
| 20260507154531 | 59 | 175 | 2.6 | 8.7 | 0.00 | 0.00 | 0.00 | 65 | 1013.4 |
| 20260507153027 | 58 | 219 | 2.6 | 11.3 | 0.00 | 0.00 | 0.00 | 64 | 1013.3 |
| 20260507151528 | 59 | 141 | 3.5 | 9.6 | 0.00 | 0.00 | 0.00 | 62 | 1013.3 |
| 20260507150031 | 60 | 183 | 2.6 | 12.2 | 0.00 | 0.00 | 0.00 | 62 | 1013.4 |
| 20260507144533 | 61 | 190 | 2.6 | 9.6 | 0.00 | 0.00 | 0.00 | 59 | 1013.4 |
| 20260507143035 | 61 | 168 | 2.6 | 8.7 | 0.00 | 0.00 | 0.00 | 61 | 1013.4 |
| 20260507141531 | 61 | 153 | 2.6 | 7.8 | 0.00 | 0.00 | 0.00 | 59 | 1013.6 |
| 20260507140032 | 60 | 172 | 3.5 | 7.8 | 0.00 | 0.00 | 0.00 | 62 | 1013.7 |
| 20260507134532 | 59 | 139 | 3.5 | 8.7 | 0.00 | 0.00 | 0.00 | 62 | 1013.7 |
| 20260507133028 | 59 | 174 | 3.5 | 9.6 | 0.00 | 0.00 | 0.00 | 59 | 1013.9 |
| 20260507131534 | 59 | 201 | 4.3 | 9.6 | 0.00 | 0.00 | 0.00 | 57 | 1014.0 |
| 20260507130029 | 59 | 172 | 4.3 | 9.6 | 0.00 | 0.00 | 0.00 | 60 | 1014.0 |
| 20260507124532 | 59 | 144 | 3.5 | 9.6 | 0.00 | 0.00 | 0.00 | 61 | 1014.0 |
| 20260507123029 | 60 | 209 | 1.7 | 11.3 | 0.00 | 0.00 | 0.00 | 61 | 1013.9 |
| 20260507121531 | 60 | 144 | 4.3 | 12.2 | 0.00 | 0.00 | 0.00 | 58 | 1013.8 |
| 20260507120033 | 56 | 141 | 3.5 | 9.6 | 0.00 | 0.00 | 0.00 | 71 | 1013.7 |
| 20260507114532 | 55 | 138 | 2.6 | 12.2 | 0.00 | 0.00 | 0.00 | 72 | 1013.7 |
| 20260507113031 | 56 | 63 | 5.2 | 13.0 | 0.00 | 0.00 | 0.00 | 67 | 1013.7 |
| 20260507111531 | 60 | 106 | 2.6 | 11.3 | 0.00 | 0.00 | 0.00 | 64 | 1013.6 |
| 20260507110031 | 58 | 72 | 4.3 | 12.2 | 0.00 | 0.00 | 0.00 | 63 | 1013.6 |
| 20260507104534 | 58 | 130 | 6.1 | 14.8 | 0.00 | 0.00 | 0.00 | 65 | 1013.6 |
| 20260507103033 | 58 | 64 | 5.2 | 11.3 | 0.00 | 0.00 | 0.00 | 62 | 1013.7 |
| 20260507101531 | 58 | 86 | 4.3 | 13.0 | 0.00 | 0.00 | 0.00 | 61 | 1013.6 |
| 20260507100034 | 56 | 101 | 4.3 | 13.0 | 0.00 | 0.00 | 0.00 | 62 | 1013.7 |
| 20260507094534 | 57 | 69 | 5.2 | 10.4 | 0.00 | 0.00 | 0.00 | 62 | 1013.5 |
| 20260507093034 | 56 | 115 | 6.1 | 12.2 | 0.00 | 0.00 | 0.00 | 63 | 1013.6 |
| 20260507091541 | 55 | 72 | 5.2 | 11.3 | 0.00 | 0.00 | 0.00 | 66 | 1013.4 |
| 20260507090037 | 56 | 101 | 3.5 | 13.0 | 0.00 | 0.00 | 0.00 | 72 | 1013.5 |
| 20260507084531 | 54 | 68 | 5.2 | 11.3 | 0.00 | 0.00 | 0.00 | 76 | 1013.4 |
| 20260507083032 | 55 | 84 | 3.5 | 13.0 | 0.00 | 0.00 | 0.00 | 77 | 1013.4 |
| 20260507081530 | 53 | 56 | 3.5 | 10.4 | 0.00 | 0.00 | 0.00 | 78 | 1013.5 |